Regional Weather Roundup
Issued by NWS Bismarck, ND

Home | Current Version | Previous Version | Text Only | Print | Product List | Glossary On
Versions: 1 2 3 4 5 6 7 8 9 10 11 12 13 14 15 16 17 18 19 20 21 22 23 24 25 26 27 28 29 30 31 32 33 34 35 36 37 38 39 40 41 42 43 44 45 46 47 48 49 50
000
ASUS43 KBIS 170710
RWRBIS

NWR BROADCAST TEXT
NATIONAL WEATHER SERVICE BISMARCK ND
200 AM CDT WED OCT 17 2018

NOTE: "FAIR" INDICATES FEW OR NO CLOUDS BELOW 12,000 FEET WITH NO
SIGNIFICANT WEATHER AND/OR OBSTRUCTIONS TO VISIBILITY.


CITY           SKY/WX    TMP DP  RH WIND       PRES   REMARKS
WILLISTON      MOCLDY    37  33  85 CALM      30.27S
MINOT          CLOUDY    35  27  72 CALM      30.27S
MINOT AFB      CLOUDY    31  26  83 W5        30.26S
BISMARCK       CLOUDY    37  26  64 CALM      30.31S
DICKINSON      CLOUDY    43  35  73 NE6       30.26S
GARRISON         N/A     38  30  73 CALM      30.27S
HETTINGER ARPT MOCLDY    42  34  73 N6        30.31R
JAMESTOWN      CLEAR     28  23  81 W3        30.29R
CARRINGTON     FAIR      27  23  86 W7        30.30R WCI  19
HAZEN          CLOUDY    41  36  81 CALM      30.30S
LINTON           N/A     37  25  60 SE5       30.33R
MANDAN         CLOUDY    36  30  80 S5        30.31R
OAKES            N/A     27  27 100 W8        30.31R WCI  18
RUGBY          FAIR      23  21  93 W3        30.26S
STANLEY        FAIR      37  30  75 CALM      30.27S
TIOGA          CLOUDY    36  36 100 SW3       30.27F
WATFORD CITY   CLOUDY    41  37  87 CALM      30.27S
$$

CITY           SKY/WX    TMP DP  RH WIND       PRES   REMARKS
GRAND FORKS    CLOUDY    35  26  69 W8        30.22S
GRAND FORKS AF CLOUDY    36  25  66 NW8       30.23S
DEVILS LAKE    FAIR      28  25  88 W10       30.26R WCI  19
FARGO          FAIR      31  25  78 NW8       30.26R
CANDO          FAIR      25  25 100 W8        30.27S WCI  16
CAVALIER       PTSUNNY   36  27  69 NW10      30.24R
GRAFTON        CLOUDY    36  28  75 NW9       30.25R
GWINNER          N/A     28  27  93 W9        30.29S WCI  20
LANGDON        FAIR      30  30 100 NW13      30.23R
ROLLA          FAIR      27  23  86 W8        30.25R WCI  18
WALHALLA         N/A     34  34 100 NW8       30.24R
$$

CITY           SKY/WX    TMP DP  RH WIND       PRES   REMARKS
ABERDEEN       CLOUDY    29  25  85 NW5       30.34R
MOBRIDGE       CLOUDY    46  35  65 CALM      30.29R
BUFFALO          N/A     39  31  72 W13       30.29R
RAPID CITY     CLEAR     33  28  81 W3        30.38R
GLASGOW        CLEAR     39  32  76 CALM      30.25S
SIDNEY           N/A     36  33  89 W3        30.28S
WOLF POINT     CLEAR     35  33  92 CALM      30.27S
GLENDIVE       CLEAR     40  32  73 N5        30.28S
MILES CITY     CLEAR     37  34  89 S8        30.31S
BAKER          CLEAR     38  32  79 W8        30.30S
$$

CITY           SKY/WX    TMP DP  RH WIND       PRES   REMARKS
BILLINGS       CLEAR     47  30  51 SW13      30.36S
GREAT FALLS    CLEAR     45  32  60 SW13      30.35S
REGINA         CLEAR     32  28  86 S5        30.25R
ESTEVAN        CLOUDY    36  28  75 S2        30.27R
$$




USA.gov is the U.S. government's official web portal to all federal, state and local government web resources and services.